Weather History for Westhampton Beach, NY

Change the Weather History Date:

Sunday, February 3, 2013

  Actual Average Record
Temperature  
Mean Temperature 26 °F -  
Max Temperature 32 °F 37 °F 53 °F (2006)
Min Temperature 17 °F 20 °F 9 °F (2011)
Degree Days  
Heating Degree Days 40    
Moisture  
Dew Point 17 °F    
Average Humidity 73    
Maximum Humidity 93    
Minimum Humidity 50    
Precipitation  
Precipitation 0.00 in - - ()
Sea Level Pressure  
Sea Level Pressure 29.92 in    
Wind  
Wind Speed 5 mph (NW)    
Max Wind Speed 13 mph    
Max Gust Speed -    
Visibility 8 miles    
Events Snow    
Averages and records for this station are not official NWS values.
T = Trace of Precipitation, MM = Missing Value Source: NWS Daily Summary

Daily Weather History Graph

Daily Weather History Graph

Search for Another Location

Airport:

Trip Planner

Search our weather history database for the weather conditions in past years. The results will help you decide how hot, cold, wet, or windy it might be!

Date:

Astronomy

Feb. 03, 2013 Rise Set
Actual Time 6:58 AM EST 5:10 PM EST
Civil Twilight 6:29 AM EST 5:39 PM EST
Nautical Twilight 5:56 AM EST 6:12 PM EST
Astronomical Twilight 5:24 AM EST 6:44 PM EST
Moon 12:22 AM EST (2/3) 10:45 AM EST (2/3)
Length of Visible Light 11h 09m
Length of Day
10h 12m
Waning Gibbous, 49% of the Moon is Illuminated
Feb 3
Waning Gibbous
Feb 10
New
Feb 17
First Quarter
Feb 25
Full
Mar 4
Last Quarter

Hourly Weather History & Observations

Time (EST) Temp. Windchill Dew Point Humidity Pressure Visibility Wind Dir Wind Speed Gust Speed Precip Events Conditions
12:02 AM 24.8 °F 16.9 °F 19.4 °F 80% 30.09 in 2.5 mi WNW 6.9 mph - 0.00 in Snow Light Snow
12:11 AM 24.8 °F 16.9 °F 19.4 °F 80% 30.09 in 3.0 mi WNW 6.9 mph - 0.00 in Snow Light Snow
12:20 AM 24.8 °F 19.1 °F 19.4 °F 80% 30.08 in 3.0 mi WNW 4.6 mph - 0.00 in Snow Light Snow
12:53 AM 25.0 °F 17.1 °F 19.9 °F 81% 30.06 in 4.0 mi NW 6.9 mph - 0.00 in Snow Light Snow
1:53 AM 25.0 °F 20.7 °F 19.9 °F 81% 30.05 in 4.0 mi WSW 3.5 mph - 0.00 in Snow Light Snow
2:08 AM 24.8 °F 19.1 °F 19.4 °F 80% 30.04 in 2.5 mi WSW 4.6 mph - 0.00 in Snow Light Snow
2:38 AM 24.8 °F 19.1 °F 19.4 °F 80% 30.03 in 3.0 mi WSW 4.6 mph - 0.00 in Snow Light Snow
2:53 AM 24.1 °F - 19.9 °F 84% 30.03 in 4.0 mi Calm Calm - 0.00 in Snow Light Snow
3:50 AM 21.2 °F - 17.6 °F 86% 30.00 in 6.0 mi Calm Calm - 0.00 in   Mostly Cloudy
3:53 AM 21.9 °F - 18.0 °F 85% 30.00 in 6.0 mi Calm Calm - 0.00 in   Mostly Cloudy
4:04 AM 19.4 °F - 17.6 °F 93% 30.00 in 7.0 mi Calm Calm - N/A   Scattered Clouds
4:53 AM 19.0 °F - 15.1 °F 85% 29.98 in 8.0 mi Calm Calm - N/A   Overcast
5:53 AM 19.0 °F - 15.1 °F 85% 29.96 in 10.0 mi Calm Calm - N/A   Mostly Cloudy
6:53 AM 23.0 °F - 19.0 °F 85% 29.99 in 10.0 mi Calm Calm - N/A   Overcast
7:33 AM 24.8 °F - 19.4 °F 80% 29.99 in 10.0 mi Calm Calm - N/A   Overcast
7:53 AM 21.9 °F - 19.0 °F 89% 29.98 in 10.0 mi Calm Calm - N/A   Overcast
8:53 AM 27.0 °F 23.0 °F 21.0 °F 78% 29.97 in 10.0 mi ENE 3.5 mph - N/A   Scattered Clouds
9:53 AM 30.0 °F 22.4 °F 19.0 °F 64% 29.94 in 10.0 mi NE 8.1 mph - N/A   Scattered Clouds
10:53 AM 30.0 °F 24.1 °F 18.0 °F 61% 29.91 in 10.0 mi North 5.8 mph - N/A   Overcast
11:53 AM 32.0 °F 25.6 °F 18.0 °F 56% 29.87 in 10.0 mi North 6.9 mph - N/A   Clear
12:53 PM 30.9 °F 23.5 °F 19.9 °F 64% 29.84 in 10.0 mi North 8.1 mph - N/A   Partly Cloudy
1:27 PM 30.2 °F 23.4 °F 19.4 °F 64% 29.82 in 10.0 mi NNE 6.9 mph - N/A   Mostly Cloudy
1:34 PM 30.2 °F 21.9 °F 19.4 °F 64% 29.82 in 10.0 mi North 9.2 mph - N/A   Scattered Clouds
1:53 PM 30.9 °F 24.3 °F 18.0 °F 59% 29.81 in 10.0 mi NNW 6.9 mph - N/A   Clear
2:53 PM 30.9 °F 24.3 °F 14.0 °F 50% 29.80 in 10.0 mi North 6.9 mph - N/A   Clear
3:53 PM 30.9 °F 21.2 °F 14.0 °F 50% 29.78 in 10.0 mi NW 12.7 mph - N/A   Clear
4:53 PM 28.0 °F 21.7 °F 16.0 °F 61% 29.78 in 10.0 mi WNW 5.8 mph - N/A   Clear
5:53 PM 26.1 °F 21.9 °F 15.1 °F 63% 29.79 in 10.0 mi West 3.5 mph - N/A   Mostly Cloudy
6:53 PM 24.1 °F 19.7 °F 15.1 °F 69% 29.80 in 10.0 mi West 3.5 mph - N/A   Mostly Cloudy
7:53 PM 24.1 °F 19.7 °F 14.0 °F 65% 29.80 in 10.0 mi West 3.5 mph - N/A   Clear
8:53 PM 19.9 °F 14.9 °F 12.9 °F 74% 29.81 in 10.0 mi West 3.5 mph - N/A   Clear
9:53 PM 21.9 °F 12.5 °F 14.0 °F 72% 29.81 in 10.0 mi West 8.1 mph - N/A   Clear
10:53 PM 21.9 °F 14.5 °F 14.0 °F 72% 29.81 in 10.0 mi West 5.8 mph - N/A   Clear
11:53 PM 17.1 °F - 10.9 °F 77% 29.81 in 10.0 mi Calm Calm - N/A   Clear